Hourly Data Report for May 23, 2021

FISHER BRANCH (AUT)
MANITOBA
Current Station Operator: ECCC - MSC

51°05'00.100" N
97°33'16.200" W
253.00 m
50309J6
71442
WSZ

Download Data

Hourly Data (May 2021)
Hourly Data Report for May 23, 2021
TIME
LST
Temp Definition
°C
Dew Point Definition
°C
Rel Hum Definition
%
Precip. Amount Definition
mm

Wind Dir Definition
10's deg

Wind Spd Definition
km/h
Visibility Definition
km
Stn Press Definition
kPa
Hmdx Definition


Wind Chill Definition


Weather Definition


00:00 7.7 4.2 79 0.0 4 7   99.81     LegendNANA
01:00 7.4 4.3 81 0.0 3 6   99.80     LegendNANA
02:00 6.7 4.3 85 0.0 2 6   99.72     LegendNANA
03:00 7.2 5.0 86 0.0 6 9   99.70     LegendNANA
04:00 7.1 4.8 85 0.0 6 7   99.71     LegendNANA
05:00 6.7 4.8 88 0.0 7 12   99.70     LegendNANA
06:00 7.1 4.6 84 0.0 10 19   99.72     LegendNANA
07:00 7.2 5.6 90 0.0 10 16   99.69     LegendNANA
08:00 7.1 5.7 91 0.0 10 16   99.64     LegendNANA
09:00 7.9 5.4 84 0.0 10 19   99.58     LegendNANA
10:00 8.5 5.1 79 0.0 11 20   99.53     LegendNANA
11:00 9.4 5.4 76 0.0 12 16   99.47     LegendNANA
12:00 10.7 5.9 72 0.0 12 15   99.41     LegendNANA
13:00 12.0 6.5 69 0.0 10 11   99.31     LegendNANA
14:00 12.4 6.4 67 0.0 12 14   99.25     LegendNANA
15:00 12.9 6.6 65 0.0 12 14   99.16     LegendNANA
16:00 13.6 7.2 65 0.0 10 16   99.05     LegendNANA
17:00 13.3 7.3 67 0.0 13 18   99.00     LegendNANA
18:00 13.3 7.6 69 0.0 10 20   98.89     LegendNANA
19:00 13.0 7.8 71 0.0 13 17   98.84     LegendNANA
20:00 12.3 7.7 74 0.0 11 20   98.73     LegendNANA
21:00 11.5 7.8 78 0.0 12 14   98.71     LegendNANA
22:00 11.3 8.0 80 0.0 14 18   98.66     LegendNANA
23:00 10.8 7.9 82 0.0 12 16   98.58     LegendNANA

Notes on Data Quality.

Legend

  • E = Estimated
  • M = Missing
  • NA = Not Available*
  • [empty] = Indicates an unobserved value
Date modified: